Powrót do katalogu

SATELIOT_1

AktywnyŁącznośćSSO
NORAD 60550·PAYLOAD·🇪🇸 Spain

Wystrzelony Aug 16, 2024 z Vandenberg Space Force Base

Loading…

Następne Przeloty (najbliższe 24 godziny)

TLE

ŚwieżeSource: Space-Track

Epoka: Sep 14, 2026, 10:55 UTC

1 60550U 24149CL  26257.45514024  .00000729  00000-0  66024-4 0  9993
2 60550  97.6681 331.8535 0007173 127.0955 233.0924 14.98348244113432

Śledź SATELIOT_1 w czasie rzeczywistym z AllMySat

Download on the App Store